Regional Weather Roundup
Issued by NWS

Home | Current Version | Previous Version | Text Only | Print | Product List | Glossary On
Versions: 1 2 3 4 5 6 7 8 9 10 11 12 13 14 15 16 17 18 19 20 21 22 23 24 25 26 27 28 29 30 31 32 33 34 35 36 37 38 39 40 41 42 43 44 45 46 47 48 49 50
000
ASUS43 KDTX 270601
RWRMI
MICHIGAN HOURLY REGIONAL WEATHER ROUNDUP
NATIONAL WEATHER SERVICE DETROIT/PONTIAC MI
100 AM EST THU NOV 27 2014

NOTE: "FAIR" INDICATES FEW OR NO CLOUDS BELOW 12,000 FEET WITH NO
SIGNIFICANT WEATHER AND/OR OBSTRUCTION TO VISIBILITY.

MIZ047>049-052>055-059>063-066>070-074>076-081>083-270700-
SOUTHEAST LOWER MICHIGAN

CITY           SKY/WX    TMP DP  RH WIND       PRES   REMARKS
ADRIAN         CLOUDY    30  23  75 N8        30.10S WCI  22
6HR MIN TEMP:  30; 6HR MAX TEMP:  31;

ALMA           CLOUDY    28  23  81 W3        30.12F
ANN ARBOR      CLOUDY    29  22  75 N8        30.09S WCI  21
BAD AXE        LGT SNOW  29  28  96 NW8       30.09S WCI  21
6HR MIN TEMP:  29; 6HR MAX TEMP:  30;

CARO           CLOUDY    30  25  80 NW5       30.10S WCI  25
DETROIT CITY   CLOUDY    33  22  63 N5        30.09S WCI  29
6HR MIN TEMP:  33; 6HR MAX TEMP:  35;

DETROIT        FLURRIES  31  23  72 NW9       30.09S WCI  23
6HR MIN TEMP:  31; 6HR MAX TEMP:  33; 6HR PCP: TRACE;

FLINT          CLOUDY    30  23  75 NW8       30.11S WCI  22
6HR MIN TEMP:  30; 6HR MAX TEMP:  31;

GROSSE ILE     CLOUDY    32  25  74 NW9       30.07S WCI  24
HILLSDALE      FLURRIES  28  26  90 N7        30.08F WCI  21
6HR MIN TEMP:  28; 6HR MAX TEMP:  29;

HOWELL         CLOUDY    28  25  87 NW6       30.09F WCI  22
6HR MIN TEMP:  28; 6HR MAX TEMP:  30;


CITY           SKY/WX    TMP DP  RH WIND       PRES   REMARKS
JACKSON        CLOUDY    28  22  78 N6        30.10S WCI  22
6HR MIN TEMP:  28; 6HR MAX TEMP:  29;

LAMBERTVILLE   CLOUDY    32  27  80 NW3       30.09S
LANSING        CLOUDY    28  23  81 NW3       30.12F
6HR MIN TEMP:  28; 6HR MAX TEMP:  29; 6HR PCP: TRACE;

LAPEER         CLOUDY    29  25  85 CALM      30.09S
MASON          FLURRIES  28  24  84 NW6       30.11S WCI  22
MONROE         CLOUDY    30  27  86 NW9       30.07S WCI  22
MT. CLEMENS    CLOUDY    31  26  83 NW9       30.06F WCI  22
6HR MIN TEMP:  30; 6HR MAX TEMP:  32; 6HR PCP: TRACE;

PONTIAC        CLOUDY    28  22  78 NW7       30.07F WCI  21
6HR MIN TEMP:  28; 6HR MAX TEMP:  30; 6HR PCP: TRACE;

PORT HOPE        N/A     31  25  78 W5        30.07S WCI  26
6HR MIN TEMP:  31; 6HR MAX TEMP:  32;

PORT HURON     CLOUDY    30  27  86 NW3       30.08F
TRI CITIES     CLOUDY    29  23  78 W5        30.13S WCI  24
6HR MIN TEMP:  29; 6HR MAX TEMP:  31;

TROY           CLOUDY    32  24  72 NW6       30.10S WCI  26
SAGINAW HB     CLOUDY    30  25  80 W5        30.11F WCI  25
$$
MIZ043>046-050>051-056>058-064>065-071>073-077>080-270700-
SOUTHWEST LOWER MICHIGAN

CITY           SKY/WX    TMP DP  RH WIND       PRES   REMARKS
BATTLE CREEK   CLOUDY    29  21  72 N3        30.12S
6HR MIN TEMP:  28; 6HR MAX TEMP:  30;

BENTON HARBOR  CLOUDY    27  23  85 SE5       30.15S WCI  22
6HR MIN TEMP:  24; 6HR MAX TEMP:  27;

BIG RAPIDS     CLOUDY    27  26  96 NW5       30.12S WCI  22
6HR MIN TEMP:  27; 6HR MAX TEMP:  29;

COLDWATER      CLOUDY    30  25  81 N3        30.11S
6HR MIN TEMP:  29; 6HR MAX TEMP:  30;

FREMONT        CLOUDY    28  27  95 CALM      30.14S FOG
HOLLAND        CLOUDY    31  22  69 CALM      30.15S
6HR MIN TEMP:  30; 6HR MAX TEMP:  31;

GRAND RAPIDS   CLOUDY    28  21  75 NW5       30.14S WCI  23
6HR MIN TEMP:  28; 6HR MAX TEMP:  29; 6HR PCP: TRACE;

IONIA          CLOUDY    29  24  79 NW3       30.12S
KALAMAZOO      CLOUDY    29  21  72 N3        30.13S
6HR MIN TEMP:  28; 6HR MAX TEMP:  29;

LUDINGTON      MOCLDY    29  24  82 NW3       30.15S
6HR MIN TEMP:  29; 6HR MAX TEMP:  29;

MARSHALL       CLOUDY    27  22  81 CALM      30.11S
MOUNT PLEASANT CLOUDY    29  23  80 W3        30.11F
6HR MIN TEMP:  28; 6HR MAX TEMP:  29;

MUSKEGON       CLOUDY    30  22  72 NW3       30.16R
6HR MIN TEMP:  29; 6HR MAX TEMP:  31;

SOUTH HAVEN    CLOUDY    29  27  91 CALM      30.15S
$$
MIZ016>042-270700-
NORTHERN LOWER MICHIGAN

CITY           SKY/WX    TMP DP  RH WIND       PRES   REMARKS
ALPENA         LGT SNOW  26  24  92 N3        30.10F FOG
6HR MIN TEMP:  25; 6HR MAX TEMP:  26; 6HR PCP:  0.02;

BEAVER ISLAND  CLOUDY    28  22  79 NW5       30.13S WCI  22
6HR MIN TEMP:  27; 6HR MAX TEMP:  29;

BELLAIRE       CLOUDY    27  25  94 CALM      30.13S
CADILLAC       CLOUDY    25  23  90 W3        30.09S
CHARLEVOIX     FLURRIES  28  26  95 S3        30.15S
6HR MIN TEMP:  26; 6HR MAX TEMP:  29;

FRANKFORT      CLOUDY    26  23  90 CALM      30.14S
GAYLORD        CLOUDY    23  20  88 CALM      30.08S
6HR MIN TEMP:  22; 6HR MAX TEMP:  24;

GRAYLING       CLOUDY    26  24  95 W3        30.10S
6HR MIN TEMP:  23; 6HR MAX TEMP:  26;

HARBOR SPRINGS CLOUDY    28  24  84 NW5       30.12R WCI  23
HOUGHTON LAKE  CLOUDY    25  21  85 NW5       30.10S WCI  19
6HR MIN TEMP:  23; 6HR MAX TEMP:  26;

MANISTEE       MOCLDY    27  21  80 NW3       30.15S
OSCODA         CLOUDY    27  22  83 NW7       30.09S WCI  19
PELLSTON       CLOUDY    22  21  96 CALM      30.13R
6HR MIN TEMP:  17; 6HR MAX TEMP:  27;

ROGERS CITY    FLURRIES  28  26  92 W3        30.12S
TRAVERSE CITY  MOCLDY    27  23  85 W3        30.12S
6HR MIN TEMP:  27; 6HR MAX TEMP:  29; 6HR PCP: TRACE;

$$
MIZ007>008-015-270700-
EASTERN UPPER MICHIGAN

CITY           SKY/WX    TMP DP  RH WIND       PRES   REMARKS
KINROSS        CLOUDY    25  25 100 CALM      30.11S
6HR MIN TEMP:  25; 6HR MAX TEMP:  25;

MACKINAC ISLAN CLOUDY    27  24  90 N5        30.11R WCI  21
6HR MIN TEMP:  26; 6HR MAX TEMP:  29;

NEWBERRY       CLOUDY    20  19  98 W3        30.11S
6HR MIN TEMP:  17; 6HR MAX TEMP:  24;

S. S. MARIE    CLOUDY    24  22  91 SE3       30.10F
6HR MIN TEMP:  24; 6HR MAX TEMP:  26; 6HR PCP: TRACE;

MUNISING         N/A     28  21  75 N18G24    30.17R WCI  15
6HR MIN TEMP:  22; 6HR MAX TEMP:  30; 6HR PCP:  0.01;

$$
MIZ004>006-011>014-085-270700-
CENTRAL UPPER MICHIGAN

CITY           SKY/WX    TMP DP  RH WIND       PRES   REMARKS
MANISTIQUE     LGT SNOW  21  20  96 NW5       30.14S WCI  15
6HR MIN TEMP:  15; 6HR MAX TEMP:  21;

ESCANABA       CLOUDY    25  19  80 NW3       30.17R
6HR MIN TEMP:  18; 6HR MAX TEMP:  25;

MENOMINEE      CLOUDY    23  18  80 NW5       30.18R WCI  17
6HR MIN TEMP:  21; 6HR MAX TEMP:  23;

SAWYER-GWINN   LGT SNOW  20  17  86 N18G25    30.16R WCI   5
$$
MIZ001>003-009>011-084-270700-
WESTERN UPPER MICHIGAN

CITY           SKY/WX    TMP DP  RH WIND       PRES   REMARKS
IRON MOUNTAIN  CLOUDY    20  14  77 NW13      30.17R WCI   7
6HR MIN TEMP:  20; 6HR MAX TEMP:  23; 6HR PCP: TRACE;

HOUGHTON       LGT SNOW  12   5  73 N15       30.24R WCI  -4
6HR MIN TEMP:  12; 6HR MAX TEMP:  20; 6HR PCP: TRACE;

COPPER HARBOR    N/A     18  12  77 N25G31    30.25R WCI   0
6HR MIN TEMP:  18; 6HR MAX TEMP:  25;

IRONWOOD       CLOUDY    16  12  86 N7        30.25R WCI   6
6HR MIN TEMP:  16; 6HR MAX TEMP:  21;

$$

ABBREVIATIONS USED IN REMARKS
   TC - TEMPERATURE IN CELSIUS
  WCI - WIND CHILL INDEX
   HX - HEAT INDEX
  VSB - VISIBILITY




USA.gov is the U.S. government's official web portal to all federal, state and local government web resources and services.